Погода в Арке

Погода в Арке : погода сейчас, прогноз погоды и архив. Всё, что Вы хотите узнать о погоде в Арке!

Хотите узнать прогноз погоды в Арке? Тогда Вам сюда: Погода в Арке

Поиск расширенной информации на нашем сайте:

Другие новости

Новости СМИ2

Главная страница сайта

Новости сайта

03.07.2017

Напоминаем, что на нашем специализированном сайте Метеоцентр.Азия вы можете получить высокодетализированные автоматические прогнозы погоды по пунктам России, СНГ и мира в авиационном формате (включающие направление и скорость ветра, видимость, явления погоды, количество и форму облачности, нижнюю и верхнюю границу облачности).

Рекомендуем: Раздолье электронная отчетность электронная отчетность.

Погода в Арке - сегодня

Время (UTC), дата Ветер
(°,м/с) 
Видим.   Явления Облачность Т
(°С)
Тd
(°С)
f(%) Тe
(°С)
Pmin
(гПа)
dP
(гПа)
Po
(мм)
O2
(г/м3)
Тmin Tmax R s Состояние
почвы
03 16.04.18 350 (С) 20000 м    1/1 1000 м 
[Cu hum]
+2.8 -9.9 39 +2  999.5  -2.3  731  293           
06 16.04.18 070 (В) 20000 м    ясно 
+4.1 -11.4 31 +5  997.6  -1.6  730  291           
09 16.04.18 тихо ()   20000 м    ясно 
+3.8 -12.4 29 +4  996.8  -0.8  730  291    +5       
12 16.04.18 150 (ЮВ) 20000 м    ясно 
-1.3 -8 60 -2  997.5  0.3  730  296           
15 16.04.18 тихо ()   20000 м    ясно 
-6.2 -7.7 89 -6  997.7  -0.3  730  302           
18 16.04.18 тихо ()   20000 м    ясно 
-11.4 -12.4 92 -11  998.1  0.1  730  308           
00 17.04.18 310 (СЗ) 20000 м    ясно 
-0.2 -10 48 -1  995.6  -1.3  728  295           
03 17.04.18 350 (С) 20000 м    ясно 
+6.1 -11.1 28 +7  994.1  -1  728  288           
06 17.04.18 090 (В) 20000 м    6/0 средняя, верхняя 
[Ac trans|Ci fib]
+6.9 -11 27 +7  992.6  -1.4  727  287           
12 17.04.18 150 (ЮВ) 20000 м    3/1 1000 м верхняя 
[Sc diur, vesp|Ci fib]
-2.6 -5.9 78 -4  995.9  0.4  728  297           
15 17.04.18 тихо ()   20000 м    ясно 
-5.4 -6.9 89 -5  997  0.8  729  300           
18 17.04.18 тихо ()   20000 м    ясно 
-7.3 -7.9 95 -7  997.7  0.5  730  303           
00 18.04.18 300 (СЗ) 20000 м    6/0 средняя, верхняя 
[Ac trans|Ci fib]
+5.7 -6.5 41 +7  997.7  0.1  730  289           
03 18.04.18 350 (С) 20000 м    8/4 1000 м верхняя 
[Cu hum|Ci fib]
+7.5 -7.5 34 +7  997.8  0.3  731  287           
06 18.04.18 280 (З) 20000 м    10/3 1000 м средняя, верхняя 
[Cu hum|Ac trans|Cs]
+6.7 -8.5 33 +5  998.6  0.3  731  288           
12 18.04.18 170 (Ю) 20000 м    3/3 1000 м 
[Sc diur, vesp]
-2.7 -5 84 -4  1003  2.1  734  299           
15 18.04.18 150 (ЮВ) н/о    н/о 
-6.1 -6.5 97 -8  1004.9  1.6  735  304           
18 18.04.18 тихо ()   н/о    н/о 
-6.8 -7.3 96 -7  1006  0.9  736  305           
00 19.04.18 330 (СЗ) н/о    н/о 
+2.3 -6.4 53 +3  1005.8  -0.4  736  295           
03 19.04.18 130 (ЮВ) 20000 м    1/1 1000 м 
[Sc]
+6.3 -9.6 31 +7  1005.2  -0.3  736  291           
06 19.04.18 160 (Ю) 20000 м    8/8 1000 м 
[Sc]
+5.3 -6.3 43 +4  1004.6  -0.7  735  291           
12 19.04.18 110 (В) 20000 м    3/1 1000 м верхняя 
[Sc|Ci fib]
-2.3 -5 82 -2  1009.1  2.3  738  301           
15 19.04.18 180 (Ю) 20000 м    1/0 верхняя 
[Ci fib]
-5.1 -5.8 95 -5  1010.2  0.8  739  304           
18 19.04.18 300 (СЗ) 20000 м    1/1 1000 м 
[Sc]
-7.6 -8.4 94 -7  1010.7  0.3  739  307           
00 20.04.18 250 (З) 20000 м    9/3 1000 м средняя 
[Cu med, cong|Ac trans]
+2.6 -4.6 59 +3  1009.6  -0.5  739  295           
Время (UTC), дата Ветер
(°,м/с) 
Видим.   Явления Облачность Т
(°С)
Тd
(°С)
f(%) Тe
(°С)
Pmin
(гПа)
dP
(гПа)
Po
(мм)
O2
(г/м3)
Тmin Tmax R s Состояние
почвы

Для получения пояснительной информации подведите курсор к названию столбца.

ПОГОДА в Арке - архив

Всё, что Вы хотите узнать о погоде в Арке - удобно и подробно!

Выберите нужную дату (начиная с 1 января 2015* года) и нажмите кнопку "Найти".
Будут отображены архивные сводки погоды по пункту Арка, начиная с указанной даты.


Отображать данные в формате CSV (для использования в таблицах Excel)


Внимание! Наш архив погоды предназначен исключительно для личного некоммерческого использования в познавательных целях. Если Вам необходимы официальные справки о состоянии погоды (для производственных, юридических, коммерческих и т.п. целей), обращайтесь в органы Росгидромета.

*Примечание: данная дата относится к архиву по метеостанциям СССР (Россия, СНГ, Балтия).
Архив по метеостанциям Зарубежной Европы и Азии (кроме Китая) хранится 10 дней, по другим регионам земного шара (Китай, Африка, Америка, Австралия, Океания) - 1 день.

Арка - район местоположения метеостанции


Название, широта, долгота, высота метеостанции:
Арка 60.1°ш. 142.3°д. 198 м над ур. моря [Российская Федерация]

Дополнительная информация

В oтличие oт бoльшинства пoгoдных сайтoв мы публикуем пoдрoбную метеoинфoрмацию в детальнoм прoфессиoнальнoм фoрмате.

Характеристики температуры и влажнoсти вoздуха измеряются на высoте 2 м в тени вдали oт зданий и деревьев.
Скoрoсть ветра измеряется на высoте 10 м (на урoвне рoста челoвека скoрoсть ветра ниже в 1.5-2 раза). Если метеoстанция нахoдится в гoрoде или в лесу, тo скoрoсть ветра занижена на 2-4 м/с пo сравнению с oткрытым местoм. Скoрoсть ветра над акватoриями крупных рек и oзёр, а также на вершинах хoлмoв на 2-5 м/с выше, чем в oбычных услoвиях.
Атмoсфернoе давление в разных тoчках местнoсти мoжет значительнo oтличаться oт давления на метеoстанции, в зависимoсти oт услoвий рельефа (при пoдъёме на 10 м давление пoнижается примернo на 1 мм рт.ст.).